DAL2190 KJFK-KATL

Flight info

Callsign DAL2190
Flight time 1h 58m
Altitude 28000
Route RBV Q430 BYRDD J48 MOL FLASK OZZZI1
Aircraft B738/M-SDE2E3FGHIRWXY/LB1

Departure

Time 2026-05-09 00:44
Airport John F. Kennedy International Airport (KJFK)

Arrival

Time 2026-05-09 02:43
Airport Hartsfield Jackson Atlanta International Airport (KATL)
Time Latitude Longitude Altitude Speed Heading
2026-05-08 23:53 40.64097 -73.78326 21 ft 0 kts 61°
2026-05-09 00:28 40.64092 -73.78338 21 ft 2 kts 61°
2026-05-09 00:29 40.64085 -73.78355 21 ft 2 kts 61°
2026-05-09 00:29 40.64079 -73.78373 21 ft 2 kts 77°
2026-05-09 00:29 40.64077 -73.78393 21 ft 2 kts 92°
2026-05-09 00:29 40.64079 -73.78412 21 ft 2 kts 109°
2026-05-09 00:30 40.64086 -73.78430 21 ft 2 kts 125°
2026-05-09 00:30 40.64096 -73.78444 21 ft 2 kts 141°
2026-05-09 00:30 40.64102 -73.78450 21 ft 1 kts 150°
2026-05-09 00:30 40.64107 -73.78454 21 ft 0 kts 151°
2026-05-09 00:35 40.64090 -73.78442 21 ft 6 kts 151°
2026-05-09 00:36 40.64032 -73.78430 21 ft 8 kts 188°
2026-05-09 00:36 40.63972 -73.78440 21 ft 9 kts 179°
2026-05-09 00:36 40.63903 -73.78405 21 ft 11 kts 152°
2026-05-09 00:36 40.63814 -73.78374 21 ft 14 kts 173°
2026-05-09 00:37 40.63708 -73.78357 21 ft 14 kts 173°
2026-05-09 00:37 40.63628 -73.78353 21 ft 9 kts 197°
2026-05-09 00:37 40.63579 -73.78386 21 ft 9 kts 209°
2026-05-09 00:37 40.63506 -73.78429 21 ft 12 kts 164°
2026-05-09 00:38 40.63455 -73.78344 21 ft 13 kts 120°
2026-05-09 00:38 40.63395 -73.78212 21 ft 20 kts 121°
2026-05-09 00:38 40.63334 -73.78056 21 ft 16 kts 105°
2026-05-09 00:38 40.63333 -73.77932 21 ft 11 kts 79°
2026-05-09 00:39 40.63321 -73.77835 21 ft 10 kts 118°
2026-05-09 00:39 40.63273 -73.77731 21 ft 16 kts 121°
2026-05-09 00:39 40.63207 -73.77582 21 ft 21 kts 119°
2026-05-09 00:39 40.63122 -73.77395 21 ft 23 kts 121°
2026-05-09 00:40 40.63042 -73.77218 21 ft 18 kts 121°
2026-05-09 00:40 40.63007 -73.77141 21 ft 8 kts 121°
2026-05-09 00:40 40.62983 -73.77087 21 ft 4 kts 122°
2026-05-09 00:41 40.62930 -73.77099 21 ft 8 kts 209°
2026-05-09 00:41 40.62867 -73.77147 21 ft 12 kts 210°
2026-05-09 00:41 40.62821 -73.77219 21 ft 8 kts 276°
2026-05-09 00:41 40.62854 -73.77297 21 ft 11 kts 302°
2026-05-09 00:42 40.62880 -73.77353 21 ft 5 kts 301°
2026-05-09 00:42 40.62888 -73.77373 21 ft 1 kts 301°
2026-05-09 00:42 40.62892 -73.77380 21 ft 0 kts 300°
2026-05-09 00:42 40.62894 -73.77385 21 ft 2 kts 300°
2026-05-09 00:43 40.62939 -73.77485 21 ft 27 kts 300°
2026-05-09 00:43 40.63136 -73.77920 21 ft 83 kts 300°
2026-05-09 00:43 40.63530 -73.78790 21 ft 133 kts 301°
2026-05-09 00:43 40.64081 -73.80008 23 ft 172 kts 300°
2026-05-09 00:44 40.64737 -73.81438 215 ft 188 kts 302°
2026-05-09 00:44 40.65461 -73.82922 655 ft 194 kts 303°
2026-05-09 00:44 40.66079 -73.84409 1335 ft 186 kts 285°
2026-05-09 00:44 40.66017 -73.86121 1651 ft 198 kts 250°
2026-05-09 00:45 40.65252 -73.87666 2051 ft 205 kts 226°
2026-05-09 00:45 40.64043 -73.88675 2524 ft 207 kts 203°
2026-05-09 00:45 40.62639 -73.89063 2985 ft 211 kts 187°
2026-05-09 00:45 40.61114 -73.89126 3280 ft 218 kts 189°
2026-05-09 00:46 40.59622 -73.89613 3639 ft 218 kts 206°
2026-05-09 00:46 40.58215 -73.90147 4380 ft 206 kts 192°
2026-05-09 00:46 40.56709 -73.90017 4501 ft 233 kts 161°
2026-05-09 00:46 40.55296 -73.88831 4940 ft 240 kts 145°
2026-05-09 00:47 40.53992 -73.87451 5415 ft 242 kts 146°
2026-05-09 00:47 40.52501 -73.86327 5486 ft 253 kts 170°
2026-05-09 00:47 40.50775 -73.86207 5847 ft 247 kts 195°
2026-05-09 00:47 40.49097 -73.86835 6162 ft 251 kts 210°
2026-05-09 00:48 40.47539 -73.87940 6620 ft 251 kts 220°
2026-05-09 00:48 40.46260 -73.89451 7115 ft 247 kts 238°
2026-05-09 00:48 40.45393 -73.91457 7416 ft 255 kts 249°
2026-05-09 00:48 40.44672 -73.93606 8013 ft 253 kts 248°
2026-05-09 00:49 40.43888 -73.95620 8702 ft 249 kts 245°
2026-05-09 00:49 40.43003 -73.97641 9110 ft 256 kts 243°
2026-05-09 00:49 40.42063 -73.99691 9442 ft 265 kts 243°
2026-05-09 00:49 40.41098 -74.01771 10011 ft 264 kts 243°
2026-05-09 00:50 40.40176 -74.03780 10718 ft 258 kts 244°
2026-05-09 00:50 40.39259 -74.05839 10976 ft 269 kts 246°
2026-05-09 00:50 40.38332 -74.08042 11170 ft 282 kts 246°
2026-05-09 00:50 40.37362 -74.10346 11353 ft 295 kts 245°
2026-05-09 00:51 40.36331 -74.12749 11507 ft 309 kts 245°
2026-05-09 00:51 40.35243 -74.15263 11581 ft 324 kts 245°
2026-05-09 00:51 40.34100 -74.17889 11763 ft 338 kts 245°
2026-05-09 00:51 40.32922 -74.20586 12071 ft 346 kts 245°
2026-05-09 00:52 40.31726 -74.23315 12567 ft 349 kts 246°
2026-05-09 00:52 40.30521 -74.26060 13175 ft 349 kts 246°
2026-05-09 00:52 40.29292 -74.28861 13622 ft 354 kts 246°
2026-05-09 00:52 40.28045 -74.31705 14184 ft 355 kts 246°
2026-05-09 00:53 40.26809 -74.34525 14687 ft 357 kts 245°
2026-05-09 00:53 40.25559 -74.37376 15238 ft 359 kts 246°
2026-05-09 00:53 40.24311 -74.40221 15711 ft 363 kts 246°
2026-05-09 00:53 40.23051 -74.43089 16337 ft 363 kts 246°
2026-05-09 00:54 40.21800 -74.46019 16693 ft 366 kts 249°
2026-05-09 00:54 40.20768 -74.49000 17162 ft 364 kts 255°
2026-05-09 00:54 40.20076 -74.52220 17661 ft 361 kts 263°
2026-05-09 00:54 40.19664 -74.55492 18116 ft 362 kts 266°
2026-05-09 00:55 40.19387 -74.58764 18588 ft 364 kts 268°
2026-05-09 00:55 40.19158 -74.62089 19094 ft 365 kts 269°
2026-05-09 00:55 40.18937 -74.65371 19714 ft 363 kts 268°
2026-05-09 00:55 40.18702 -74.68694 20117 ft 367 kts 267°
2026-05-09 00:56 40.18456 -74.71999 20677 ft 367 kts 268°
2026-05-09 00:56 40.18203 -74.75298 21158 ft 368 kts 268°
2026-05-09 00:56 40.17943 -74.78632 21601 ft 370 kts 267°
2026-05-09 00:56 40.17678 -74.81981 21997 ft 373 kts 268°
2026-05-09 00:57 40.17408 -74.85355 22440 ft 375 kts 268°
2026-05-09 00:57 40.17136 -74.88728 22910 ft 376 kts 268°
2026-05-09 00:57 40.16860 -74.92123 23406 ft 375 kts 267°
2026-05-09 00:57 40.16581 -74.95547 23777 ft 378 kts 268°
2026-05-09 00:58 40.16304 -74.98953 24141 ft 380 kts 268°
2026-05-09 00:58 40.16021 -75.02402 24556 ft 382 kts 268°
2026-05-09 00:58 40.15734 -75.05897 24931 ft 383 kts 267°
2026-05-09 00:58 40.15447 -75.09371 25343 ft 384 kts 268°
2026-05-09 00:59 40.15155 -75.12891 25744 ft 384 kts 267°
2026-05-09 00:59 40.14868 -75.16340 26108 ft 385 kts 267°
2026-05-09 00:59 40.14578 -75.19823 26443 ft 386 kts 267°
2026-05-09 00:59 40.14286 -75.23307 26809 ft 386 kts 267°
2026-05-09 01:00 40.13995 -75.26759 27388 ft 381 kts 267°
2026-05-09 01:00 40.13705 -75.30170 27889 ft 377 kts 266°
2026-05-09 01:00 40.13414 -75.33589 27965 ft 380 kts 267°
2026-05-09 01:00 40.13126 -75.36988 27969 ft 375 kts 266°
2026-05-09 01:01 40.12837 -75.40372 27968 ft 374 kts 266°
2026-05-09 01:01 40.12546 -75.43774 27974 ft 375 kts 267°
2026-05-09 01:01 40.12254 -75.47184 27972 ft 375 kts 266°
2026-05-09 01:01 40.11965 -75.50542 27968 ft 375 kts 266°
2026-05-09 01:02 40.11669 -75.53971 27971 ft 375 kts 267°
2026-05-09 01:02 40.11376 -75.57336 27972 ft 375 kts 267°
2026-05-09 01:02 40.11079 -75.60746 27968 ft 375 kts 266°
2026-05-09 01:02 40.10783 -75.64121 27968 ft 374 kts 267°
2026-05-09 01:03 40.10489 -75.67474 27972 ft 376 kts 266°
2026-05-09 01:03 40.10192 -75.70860 27966 ft 376 kts 266°
2026-05-09 01:03 40.09890 -75.74276 27967 ft 375 kts 266°
2026-05-09 01:03 40.09546 -75.77651 27964 ft 375 kts 264°
2026-05-09 01:04 40.08966 -75.80982 27973 ft 380 kts 257°
2026-05-09 01:04 40.07943 -75.84232 27960 ft 387 kts 249°
2026-05-09 01:04 40.06614 -75.87285 27976 ft 392 kts 246°
2026-05-09 01:04 40.05146 -75.90272 27962 ft 392 kts 244°
2026-05-09 01:05 40.03615 -75.93238 27966 ft 392 kts 243°
2026-05-09 01:05 40.02081 -75.96169 27971 ft 393 kts 244°
2026-05-09 01:05 39.98988 -76.02113 27977 ft 394 kts 243°
2026-05-09 01:06 39.97441 -76.05110 27965 ft 392 kts 244°
2026-05-09 01:06 39.95918 -76.08075 27959 ft 390 kts 244°
2026-05-09 01:06 39.94405 -76.11028 27963 ft 391 kts 244°
2026-05-09 01:06 39.92874 -76.14024 27954 ft 392 kts 244°
2026-05-09 01:07 39.91352 -76.17003 27969 ft 394 kts 244°
2026-05-09 01:07 39.89841 -76.19956 27967 ft 392 kts 244°
2026-05-09 01:07 39.88334 -76.22896 27962 ft 393 kts 244°
2026-05-09 01:07 39.86809 -76.25874 27970 ft 393 kts 244°
2026-05-09 01:08 39.85271 -76.28870 27961 ft 391 kts 244°
2026-05-09 01:08 39.83767 -76.31798 27964 ft 391 kts 244°
2026-05-09 01:08 39.82227 -76.34795 27964 ft 393 kts 244°
2026-05-09 01:08 39.80696 -76.37774 27978 ft 393 kts 243°
2026-05-09 01:09 39.79173 -76.40729 27973 ft 393 kts 244°
2026-05-09 01:09 39.77644 -76.43699 27965 ft 394 kts 244°
2026-05-09 01:09 39.76099 -76.46693 27965 ft 393 kts 243°
2026-05-09 01:09 39.74574 -76.49644 27972 ft 395 kts 244°
2026-05-09 01:10 39.73050 -76.52594 27961 ft 395 kts 244°
2026-05-09 01:10 39.71523 -76.55545 27981 ft 393 kts 243°
2026-05-09 01:10 39.69983 -76.58517 27959 ft 392 kts 243°
2026-05-09 01:10 39.68441 -76.61491 27957 ft 394 kts 243°
2026-05-09 01:11 39.66888 -76.64487 27962 ft 395 kts 244°
2026-05-09 01:11 39.65370 -76.67410 27972 ft 394 kts 243°
2026-05-09 01:11 39.63815 -76.70403 27972 ft 395 kts 243°
2026-05-09 01:11 39.62271 -76.73370 27985 ft 394 kts 243°
2026-05-09 01:12 39.60735 -76.76320 27967 ft 395 kts 243°
2026-05-09 01:12 39.59203 -76.79260 27964 ft 393 kts 243°
2026-05-09 01:12 39.57669 -76.82201 27967 ft 395 kts 243°
2026-05-09 01:12 39.56110 -76.85191 27983 ft 393 kts 243°
2026-05-09 01:13 39.54581 -76.88116 27959 ft 394 kts 243°
2026-05-09 01:13 39.53053 -76.91039 27978 ft 394 kts 242°
2026-05-09 01:13 39.51461 -76.94028 27984 ft 393 kts 242°
2026-05-09 01:13 39.49789 -76.96864 27962 ft 398 kts 237°
2026-05-09 01:14 39.47876 -76.99503 27981 ft 406 kts 232°
2026-05-09 01:14 39.45758 -77.01976 27975 ft 409 kts 229°
2026-05-09 01:14 39.43531 -77.04363 27967 ft 410 kts 228°
2026-05-09 01:14 39.41296 -77.06677 27963 ft 411 kts 227°
2026-05-09 01:15 39.39066 -77.08967 27963 ft 409 kts 227°
2026-05-09 01:15 39.36861 -77.11231 27962 ft 407 kts 227°
2026-05-09 01:15 39.34595 -77.13577 27971 ft 412 kts 228°
2026-05-09 01:15 39.32364 -77.15899 27967 ft 410 kts 227°
2026-05-09 01:16 39.30124 -77.18225 27971 ft 407 kts 227°
2026-05-09 01:16 39.27916 -77.20529 27971 ft 411 kts 228°
2026-05-09 01:16 39.25655 -77.22894 27970 ft 410 kts 228°
2026-05-09 01:17 39.21223 -77.27525 27967 ft 410 kts 228°
2026-05-09 01:17 39.18984 -77.29861 27969 ft 409 kts 228°
2026-05-09 01:17 39.16789 -77.32148 27970 ft 407 kts 228°
2026-05-09 01:17 39.14575 -77.34453 27971 ft 410 kts 228°
2026-05-09 01:18 39.12381 -77.36740 27963 ft 410 kts 228°
2026-05-09 01:18 39.10137 -77.39073 27964 ft 409 kts 228°
2026-05-09 01:18 39.07925 -77.41373 27966 ft 408 kts 227°
2026-05-09 01:18 39.05703 -77.43680 27955 ft 409 kts 228°
2026-05-09 01:19 39.03449 -77.46021 27967 ft 410 kts 228°
2026-05-09 01:19 39.01203 -77.48346 27956 ft 408 kts 227°
2026-05-09 01:19 38.98996 -77.50629 27962 ft 407 kts 228°
2026-05-09 01:19 38.96778 -77.52924 27965 ft 408 kts 227°
2026-05-09 01:20 38.94590 -77.55190 27962 ft 410 kts 227°
2026-05-09 01:20 38.92349 -77.57506 27963 ft 410 kts 227°
2026-05-09 01:20 38.90138 -77.59789 27960 ft 408 kts 227°
2026-05-09 01:20 38.87898 -77.62100 27962 ft 411 kts 227°
2026-05-09 01:21 38.85661 -77.64409 27963 ft 411 kts 228°
2026-05-09 01:21 38.83422 -77.66718 27963 ft 411 kts 227°
2026-05-09 01:21 38.81204 -77.68999 27965 ft 409 kts 227°
2026-05-09 01:21 38.78952 -77.71313 27959 ft 409 kts 227°
2026-05-09 01:22 38.76753 -77.73572 27962 ft 409 kts 227°
2026-05-09 01:22 38.74527 -77.75859 27962 ft 408 kts 227°
2026-05-09 01:22 38.72266 -77.78177 27964 ft 410 kts 227°
2026-05-09 01:22 38.70007 -77.80496 27965 ft 413 kts 227°
2026-05-09 01:23 38.67799 -77.82758 27962 ft 409 kts 227°
2026-05-09 01:23 38.65621 -77.85136 27969 ft 406 kts 231°
2026-05-09 01:23 38.63599 -77.87734 27971 ft 405 kts 235°
2026-05-09 01:23 38.61769 -77.90466 27971 ft 399 kts 238°
2026-05-09 01:24 38.60065 -77.93232 27975 ft 398 kts 239°
2026-05-09 01:24 38.58381 -77.96088 27974 ft 398 kts 240°
2026-05-09 01:24 38.56735 -77.98927 27976 ft 396 kts 240°
2026-05-09 01:24 38.55088 -78.01775 27976 ft 396 kts 240°
2026-05-09 01:25 38.53455 -78.04590 27972 ft 396 kts 240°
2026-05-09 01:25 38.51805 -78.07427 27966 ft 397 kts 240°
2026-05-09 01:25 38.50139 -78.10279 27966 ft 398 kts 240°
2026-05-09 01:25 38.48474 -78.13120 27967 ft 399 kts 239°
2026-05-09 01:26 38.46791 -78.15980 27967 ft 398 kts 240°
2026-05-09 01:26 38.45116 -78.18819 27963 ft 397 kts 239°
2026-05-09 01:26 38.43440 -78.21652 27969 ft 398 kts 240°
2026-05-09 01:26 38.41767 -78.24480 27966 ft 400 kts 240°
2026-05-09 01:27 38.40083 -78.27326 27970 ft 401 kts 240°
2026-05-09 01:27 38.38405 -78.30154 27965 ft 398 kts 239°
2026-05-09 01:27 38.36720 -78.32991 27967 ft 398 kts 239°
2026-05-09 01:27 38.35022 -78.35847 27972 ft 398 kts 239°
2026-05-09 01:28 38.33360 -78.38642 27974 ft 398 kts 240°
2026-05-09 01:28 38.31675 -78.41474 27971 ft 398 kts 239°
2026-05-09 01:28 38.30000 -78.44286 27972 ft 398 kts 239°
2026-05-09 01:28 38.28315 -78.47115 27978 ft 398 kts 239°
2026-05-09 01:29 38.26639 -78.49921 27975 ft 396 kts 239°
2026-05-09 01:29 38.24959 -78.52731 27976 ft 396 kts 239°
2026-05-09 01:29 38.23275 -78.55550 27975 ft 399 kts 239°
2026-05-09 01:29 38.21576 -78.58396 27978 ft 399 kts 239°
2026-05-09 01:30 38.19902 -78.61190 27978 ft 397 kts 239°
2026-05-09 01:30 38.18222 -78.63993 27978 ft 398 kts 239°
2026-05-09 01:30 38.16528 -78.66818 27985 ft 396 kts 239°
2026-05-09 01:30 38.14879 -78.69558 27855 ft 385 kts 239°
2026-05-09 01:31 38.13293 -78.72179 27899 ft 367 kts 239°
2026-05-09 01:31 38.11755 -78.74715 27897 ft 350 kts 239°
2026-05-09 01:31 38.10296 -78.77127 27896 ft 339 kts 240°
2026-05-09 01:31 38.08857 -78.79527 27901 ft 341 kts 240°
2026-05-09 01:32 38.07418 -78.81940 27893 ft 345 kts 240°
2026-05-09 01:32 38.05951 -78.84394 27894 ft 346 kts 239°
2026-05-09 01:32 38.04468 -78.86859 27895 ft 345 kts 240°
2026-05-09 01:32 38.03014 -78.89274 27892 ft 346 kts 239°
2026-05-09 01:33 38.01533 -78.91726 27887 ft 345 kts 239°
2026-05-09 01:33 38.00055 -78.94169 27890 ft 344 kts 240°
2026-05-09 01:33 37.98578 -78.96608 27890 ft 346 kts 240°
2026-05-09 01:33 37.97100 -78.99050 27880 ft 344 kts 240°
2026-05-09 01:34 37.95636 -79.01461 27899 ft 343 kts 240°
2026-05-09 01:34 37.94175 -79.03869 27906 ft 345 kts 240°
2026-05-09 01:34 37.92703 -79.06292 27904 ft 344 kts 240°
2026-05-09 01:34 37.91236 -79.08708 27903 ft 344 kts 240°
2026-05-09 01:35 37.89773 -79.11102 27912 ft 344 kts 239°
2026-05-09 01:35 37.88234 -79.13415 27908 ft 345 kts 236°
2026-05-09 01:35 37.86601 -79.15685 27912 ft 346 kts 235°
2026-05-09 01:35 37.84956 -79.17919 27913 ft 346 kts 235°
2026-05-09 01:36 37.83319 -79.20141 27923 ft 346 kts 235°
2026-05-09 01:36 37.81656 -79.22414 27919 ft 346 kts 236°
2026-05-09 01:36 37.80031 -79.24650 27914 ft 346 kts 236°
2026-05-09 01:36 37.78385 -79.26923 27916 ft 346 kts 236°
2026-05-09 01:37 37.76745 -79.29192 27919 ft 346 kts 236°
2026-05-09 01:37 37.75129 -79.31428 27918 ft 345 kts 236°
2026-05-09 01:37 37.73510 -79.33671 27917 ft 344 kts 236°
2026-05-09 01:37 37.71872 -79.35942 27918 ft 344 kts 237°
2026-05-09 01:38 37.70250 -79.38191 27918 ft 344 kts 236°
2026-05-09 01:38 37.68647 -79.40409 27904 ft 343 kts 236°
2026-05-09 01:38 37.67027 -79.42644 27917 ft 341 kts 236°
2026-05-09 01:38 37.65400 -79.44894 27924 ft 342 kts 236°
2026-05-09 01:39 37.63804 -79.47098 27924 ft 341 kts 236°
2026-05-09 01:39 37.62189 -79.49326 27925 ft 340 kts 236°
2026-05-09 01:39 37.60575 -79.51550 27924 ft 342 kts 236°
2026-05-09 01:39 37.58956 -79.53780 27933 ft 339 kts 236°
2026-05-09 01:40 37.57339 -79.56005 27931 ft 341 kts 236°
2026-05-09 01:40 37.55721 -79.58236 27925 ft 343 kts 237°
2026-05-09 01:40 37.54101 -79.60468 27919 ft 342 kts 237°
2026-05-09 01:40 37.52482 -79.62692 27927 ft 340 kts 236°
2026-05-09 01:41 37.50881 -79.64884 27927 ft 339 kts 236°
2026-05-09 01:41 37.49255 -79.67114 27923 ft 341 kts 236°
2026-05-09 01:41 37.47658 -79.69307 27930 ft 341 kts 236°
2026-05-09 01:41 37.46052 -79.71506 27924 ft 338 kts 236°
2026-05-09 01:42 37.44443 -79.73710 27922 ft 339 kts 236°
2026-05-09 01:42 37.42814 -79.75942 27924 ft 338 kts 236°
2026-05-09 01:42 37.41222 -79.78117 27922 ft 337 kts 236°
2026-05-09 01:42 37.39620 -79.80309 27927 ft 338 kts 236°
2026-05-09 01:43 37.38018 -79.82500 27936 ft 340 kts 236°
2026-05-09 01:43 37.36402 -79.84707 27933 ft 338 kts 236°
2026-05-09 01:43 37.34774 -79.86928 27932 ft 338 kts 236°
2026-05-09 01:43 37.33158 -79.89129 27932 ft 340 kts 236°
2026-05-09 01:44 37.31533 -79.91341 27931 ft 339 kts 236°
2026-05-09 01:44 37.29944 -79.93499 27927 ft 334 kts 236°
2026-05-09 01:44 37.28342 -79.95673 27931 ft 335 kts 236°
2026-05-09 01:44 37.26746 -79.97846 27924 ft 336 kts 236°
2026-05-09 01:45 37.25161 -79.99998 27920 ft 335 kts 236°
2026-05-09 01:45 37.23549 -80.02187 27929 ft 335 kts 236°
2026-05-09 01:45 37.21967 -80.04335 27921 ft 334 kts 236°
2026-05-09 01:45 37.20378 -80.06486 27920 ft 334 kts 236°
2026-05-09 01:46 37.18794 -80.08627 27919 ft 329 kts 236°
2026-05-09 01:46 37.17194 -80.10793 27917 ft 334 kts 236°
2026-05-09 01:46 37.15616 -80.12935 27927 ft 332 kts 236°
2026-05-09 01:46 37.14036 -80.15074 27933 ft 332 kts 236°
2026-05-09 01:47 37.12460 -80.17203 27928 ft 331 kts 236°
2026-05-09 01:47 37.10863 -80.19360 27935 ft 335 kts 236°
2026-05-09 01:47 37.09278 -80.21503 27927 ft 333 kts 236°
2026-05-09 01:47 37.07694 -80.23632 27924 ft 332 kts 237°
2026-05-09 01:48 37.06082 -80.25803 27925 ft 332 kts 236°
2026-05-09 01:48 37.04520 -80.27904 27923 ft 330 kts 237°
2026-05-09 01:48 37.02948 -80.30018 27933 ft 328 kts 236°
2026-05-09 01:48 37.01400 -80.32095 27922 ft 327 kts 236°
2026-05-09 01:49 36.99812 -80.34179 27930 ft 328 kts 236°
2026-05-09 01:49 36.98201 -80.36247 27939 ft 331 kts 234°
2026-05-09 01:49 36.96581 -80.38309 27939 ft 327 kts 235°
2026-05-09 01:49 36.94973 -80.40355 27929 ft 326 kts 234°
2026-05-09 01:50 36.93354 -80.42417 27935 ft 329 kts 235°
2026-05-09 01:50 36.91718 -80.44506 27931 ft 330 kts 236°
2026-05-09 01:50 36.90099 -80.46571 27932 ft 329 kts 235°
2026-05-09 01:50 36.88487 -80.48625 27939 ft 331 kts 236°
2026-05-09 01:51 36.86855 -80.50707 27937 ft 329 kts 235°
2026-05-09 01:51 36.85260 -80.52740 27936 ft 326 kts 236°
2026-05-09 01:51 36.83657 -80.54791 27942 ft 327 kts 235°
2026-05-09 01:51 36.82039 -80.56856 27940 ft 328 kts 236°
2026-05-09 01:52 36.80433 -80.58899 27938 ft 328 kts 235°
2026-05-09 01:52 36.78832 -80.60933 27937 ft 328 kts 236°
2026-05-09 01:52 36.77207 -80.63000 27947 ft 329 kts 235°
2026-05-09 01:52 36.75619 -80.65017 27938 ft 326 kts 235°
2026-05-09 01:53 36.74014 -80.67057 27947 ft 328 kts 234°
2026-05-09 01:53 36.72389 -80.69121 27943 ft 328 kts 235°
2026-05-09 01:53 36.70790 -80.71151 27949 ft 327 kts 234°
2026-05-09 01:53 36.69187 -80.73183 27945 ft 328 kts 235°
2026-05-09 01:54 36.67555 -80.75253 27946 ft 327 kts 234°
2026-05-09 01:54 36.65962 -80.77270 27954 ft 327 kts 234°
2026-05-09 01:54 36.64360 -80.79295 27947 ft 325 kts 234°
2026-05-09 01:54 36.62756 -80.81324 27948 ft 328 kts 235°
2026-05-09 01:55 36.61143 -80.83366 27947 ft 327 kts 235°
2026-05-09 01:55 36.59517 -80.85419 27945 ft 328 kts 234°
2026-05-09 01:55 36.57906 -80.87449 27946 ft 326 kts 235°
2026-05-09 01:55 36.56319 -80.89455 27948 ft 328 kts 235°
2026-05-09 01:56 36.54706 -80.91490 27947 ft 326 kts 235°
2026-05-09 01:56 36.53074 -80.93545 27944 ft 327 kts 235°
2026-05-09 01:56 36.51463 -80.95573 27948 ft 327 kts 234°
2026-05-09 01:56 36.49852 -80.97597 27951 ft 326 kts 235°
2026-05-09 01:57 36.48237 -80.99633 27955 ft 329 kts 234°
2026-05-09 01:57 36.46623 -81.01662 27948 ft 324 kts 234°
2026-05-09 01:57 36.45040 -81.03645 27946 ft 323 kts 235°
2026-05-09 01:57 36.43442 -81.05654 27958 ft 327 kts 235°
2026-05-09 01:58 36.41821 -81.07693 27953 ft 330 kts 234°
2026-05-09 01:58 36.40194 -81.09731 27943 ft 326 kts 235°
2026-05-09 01:58 36.38578 -81.11750 27950 ft 324 kts 235°
2026-05-09 01:58 36.36974 -81.13759 27955 ft 326 kts 235°
2026-05-09 01:59 36.35365 -81.15781 27957 ft 324 kts 234°
2026-05-09 01:59 36.33766 -81.17779 27956 ft 322 kts 235°
2026-05-09 01:59 36.32179 -81.19764 27958 ft 324 kts 235°
2026-05-09 01:59 36.30581 -81.21766 27958 ft 324 kts 234°
2026-05-09 02:00 36.28983 -81.23760 27959 ft 324 kts 234°
2026-05-09 02:00 36.27384 -81.25754 27955 ft 322 kts 234°
2026-05-09 02:00 36.25801 -81.27727 27951 ft 323 kts 235°
2026-05-09 02:00 36.24198 -81.29727 27956 ft 324 kts 234°
2026-05-09 02:01 36.22581 -81.31739 27953 ft 322 kts 235°
2026-05-09 02:01 36.20982 -81.33727 27955 ft 323 kts 235°
2026-05-09 02:01 36.19369 -81.35733 27955 ft 325 kts 235°
2026-05-09 02:01 36.17780 -81.37710 27946 ft 325 kts 235°
2026-05-09 02:02 36.16177 -81.39698 27951 ft 322 kts 235°
2026-05-09 02:02 36.14566 -81.41697 27949 ft 322 kts 234°
2026-05-09 02:02 36.12984 -81.43663 27944 ft 324 kts 235°
2026-05-09 02:02 36.11385 -81.45650 27946 ft 325 kts 235°
2026-05-09 02:03 36.09758 -81.47666 27946 ft 323 kts 234°
2026-05-09 02:03 36.08155 -81.49649 28022 ft 323 kts 234°
2026-05-09 02:03 36.04917 -81.53667 28031 ft 335 kts 235°
2026-05-09 02:04 36.01546 -81.57846 28026 ft 347 kts 234°
2026-05-09 02:04 35.98049 -81.62165 28030 ft 359 kts 234°
2026-05-09 02:05 35.94422 -81.66637 28031 ft 371 kts 233°
2026-05-09 02:05 35.90683 -81.71230 28030 ft 374 kts 233°
2026-05-09 02:06 35.87003 -81.75733 28042 ft 372 kts 233°
2026-05-09 02:07 35.81451 -81.82533 28045 ft 373 kts 233°
2026-05-09 02:07 35.77747 -81.87067 28048 ft 373 kts 233°
2026-05-09 02:08 35.74029 -81.91611 28037 ft 373 kts 233°
2026-05-09 02:08 35.70330 -81.96132 28043 ft 373 kts 233°
2026-05-09 02:09 35.66599 -82.00684 28043 ft 370 kts 233°
2026-05-09 02:09 35.62911 -82.05177 28034 ft 374 kts 233°
2026-05-09 02:10 35.59189 -82.09703 28046 ft 370 kts 233°
2026-05-09 02:10 35.55501 -82.14181 28042 ft 371 kts 232°
2026-05-09 02:11 35.51780 -82.18697 28043 ft 373 kts 233°
2026-05-09 02:11 35.48062 -82.23197 28041 ft 375 kts 232°
2026-05-09 02:12 35.44302 -82.27747 28041 ft 372 kts 232°
2026-05-09 02:12 35.40610 -82.32201 28046 ft 373 kts 232°
2026-05-09 02:13 35.36837 -82.36757 28046 ft 373 kts 233°
2026-05-09 02:13 35.33089 -82.41275 28040 ft 374 kts 232°
2026-05-09 02:14 35.29331 -82.45792 28042 ft 372 kts 232°
2026-05-09 02:14 35.25594 -82.50284 28046 ft 375 kts 232°
2026-05-09 02:15 35.21831 -82.54795 28040 ft 374 kts 232°
2026-05-09 02:15 35.18078 -82.59291 28042 ft 373 kts 232°
2026-05-09 02:16 35.14326 -82.63779 28034 ft 374 kts 232°
2026-05-09 02:16 35.10569 -82.68269 28033 ft 377 kts 232°
2026-05-09 02:17 35.06781 -82.72787 28041 ft 373 kts 232°
2026-05-09 02:17 35.03037 -82.77248 28037 ft 375 kts 231°
2026-05-09 02:18 34.99246 -82.81757 28037 ft 376 kts 231°
2026-05-09 02:18 34.95475 -82.86237 28037 ft 377 kts 231°
2026-05-09 02:19 34.91629 -82.90778 28037 ft 376 kts 230°
2026-05-09 02:19 34.87819 -82.95189 28039 ft 378 kts 230°
2026-05-09 02:20 34.83963 -82.99637 28037 ft 378 kts 231°
2026-05-09 02:20 34.80082 -83.04116 28035 ft 381 kts 230°
2026-05-09 02:21 34.76217 -83.08570 28038 ft 379 kts 230°
2026-05-09 02:21 34.72368 -83.13003 28036 ft 380 kts 230°
2026-05-09 02:22 34.68463 -83.17497 28037 ft 383 kts 230°
2026-05-09 02:22 34.64590 -83.21954 28037 ft 383 kts 229°
2026-05-09 02:23 34.60662 -83.26449 27911 ft 377 kts 229°
2026-05-09 02:23 34.58744 -83.28638 27504 ft 371 kts 230°
2026-05-09 02:23 34.56876 -83.30776 26926 ft 369 kts 230°
2026-05-09 02:23 34.55007 -83.32921 26184 ft 374 kts 230°
2026-05-09 02:24 34.53126 -83.35094 25323 ft 379 kts 231°
2026-05-09 02:24 34.51192 -83.37329 24527 ft 381 kts 230°
2026-05-09 02:24 34.49271 -83.39542 23890 ft 380 kts 231°
2026-05-09 02:24 34.47335 -83.41766 23217 ft 380 kts 231°
2026-05-09 02:25 34.45390 -83.44000 22505 ft 381 kts 231°
2026-05-09 02:25 34.43478 -83.46197 21817 ft 381 kts 231°
2026-05-09 02:25 34.41548 -83.48415 21119 ft 381 kts 230°
2026-05-09 02:25 34.39580 -83.50674 20405 ft 382 kts 230°
2026-05-09 02:26 34.37641 -83.52896 19679 ft 383 kts 229°
2026-05-09 02:26 34.35677 -83.55145 18955 ft 384 kts 229°
2026-05-09 02:26 34.33725 -83.57378 18217 ft 385 kts 229°
2026-05-09 02:26 34.31784 -83.59600 17509 ft 385 kts 229°
2026-05-09 02:27 34.29849 -83.61813 16785 ft 386 kts 228°
2026-05-09 02:27 34.27863 -83.64060 16027 ft 388 kts 227°
2026-05-09 02:27 34.25856 -83.66241 15312 ft 388 kts 225°
2026-05-09 02:27 34.23809 -83.68407 14587 ft 388 kts 225°
2026-05-09 02:28 34.21763 -83.70554 13875 ft 388 kts 225°
2026-05-09 02:28 34.19686 -83.72734 13259 ft 384 kts 225°
2026-05-09 02:28 34.17697 -83.74825 12985 ft 372 kts 224°
2026-05-09 02:28 34.15761 -83.76866 12732 ft 362 kts 224°
2026-05-09 02:29 34.13864 -83.78876 12484 ft 364 kts 225°
2026-05-09 02:29 34.11945 -83.80918 12048 ft 364 kts 224°
2026-05-09 02:29 34.10054 -83.82927 11986 ft 356 kts 224°
2026-05-09 02:29 34.08207 -83.84892 11982 ft 350 kts 225°
2026-05-09 02:30 34.06421 -83.86803 11968 ft 336 kts 225°
2026-05-09 02:30 34.04695 -83.88654 11973 ft 318 kts 225°
2026-05-09 02:30 34.03088 -83.90382 11978 ft 301 kts 226°
2026-05-09 02:30 34.01545 -83.92044 11977 ft 285 kts 225°
2026-05-09 02:31 34.00084 -83.93619 11980 ft 277 kts 226°
2026-05-09 02:31 33.98632 -83.95174 11981 ft 279 kts 224°
2026-05-09 02:31 33.97003 -83.96517 11972 ft 285 kts 208°
2026-05-09 02:31 33.95036 -83.97028 11877 ft 285 kts 187°
2026-05-09 02:32 33.93070 -83.96917 11690 ft 280 kts 181°
2026-05-09 02:32 33.91139 -83.96697 11440 ft 275 kts 181°
2026-05-09 02:32 33.89241 -83.96525 11154 ft 270 kts 182°
2026-05-09 02:32 33.87346 -83.96412 10857 ft 266 kts 184°
2026-05-09 02:33 33.85503 -83.96333 10562 ft 263 kts 184°
2026-05-09 02:33 33.83673 -83.96262 10267 ft 260 kts 184°
2026-05-09 02:33 33.81858 -83.96191 9974 ft 257 kts 184°
2026-05-09 02:33 33.80077 -83.96118 9677 ft 254 kts 183°
2026-05-09 02:34 33.78317 -83.96046 9385 ft 252 kts 183°
2026-05-09 02:34 33.76554 -83.95974 9093 ft 249 kts 185°
2026-05-09 02:34 33.74837 -83.96136 8786 ft 241 kts 200°
2026-05-09 02:34 33.73275 -83.96820 8489 ft 235 kts 209°
2026-05-09 02:35 33.71803 -83.97693 8182 ft 230 kts 218°
2026-05-09 02:35 33.70742 -83.99062 7870 ft 224 kts 246°
2026-05-09 02:35 33.70464 -84.00881 7576 ft 224 kts 276°
2026-05-09 02:35 33.70931 -84.02679 7310 ft 225 kts 285°
2026-05-09 02:36 33.71180 -84.04493 6992 ft 218 kts 257°
2026-05-09 02:36 33.70513 -84.06090 6720 ft 215 kts 229°
2026-05-09 02:36 33.69457 -84.07363 6427 ft 214 kts 224°
2026-05-09 02:36 33.68352 -84.08592 6128 ft 212 kts 224°
2026-05-09 02:37 33.67254 -84.09811 5827 ft 210 kts 224°
2026-05-09 02:37 33.66334 -84.11144 5508 ft 209 kts 239°
2026-05-09 02:37 33.65645 -84.12686 5152 ft 207 kts 242°
2026-05-09 02:37 33.65095 -84.14278 4802 ft 205 kts 255°
2026-05-09 02:38 33.64926 -84.15979 4462 ft 204 kts 266°
2026-05-09 02:38 33.64922 -84.17676 4131 ft 199 kts 267°
2026-05-09 02:38 33.64930 -84.19314 3784 ft 196 kts 267°
2026-05-09 02:38 33.64932 -84.20950 3433 ft 193 kts 266°
2026-05-09 02:39 33.64932 -84.22568 3086 ft 191 kts 267°
2026-05-09 02:39 33.64936 -84.24113 2968 ft 181 kts 268°
2026-05-09 02:39 33.64939 -84.25639 2989 ft 182 kts 267°
2026-05-09 02:39 33.64941 -84.27174 2985 ft 183 kts 267°
2026-05-09 02:40 33.64943 -84.28711 2983 ft 184 kts 267°
2026-05-09 02:40 33.64944 -84.30254 2797 ft 185 kts 266°
2026-05-09 02:40 33.64946 -84.31756 2499 ft 172 kts 267°
2026-05-09 02:40 33.64950 -84.33135 2354 ft 157 kts 267°
2026-05-09 02:41 33.64946 -84.34456 2107 ft 159 kts 268°
2026-05-09 02:41 33.64952 -84.35757 1899 ft 155 kts 268°
2026-05-09 02:41 33.64957 -84.37064 1681 ft 154 kts 267°
2026-05-09 02:41 33.64955 -84.38351 1491 ft 154 kts 270°
2026-05-09 02:42 33.64954 -84.39648 1284 ft 157 kts 268°
2026-05-09 02:42 33.64954 -84.40946 1058 ft 156 kts 269°
2026-05-09 02:42 33.64949 -84.42098 1012 ft 117 kts 270°
2026-05-09 02:42 33.64952 -84.42863 1018 ft 67 kts 270°
2026-05-09 02:43 33.64951 -84.43254 1023 ft 29 kts 271°
2026-05-09 02:43 33.64952 -84.43504 1025 ft 30 kts 270°
2026-05-09 02:43 33.64951 -84.43765 1030 ft 29 kts 270°
2026-05-09 02:43 33.64923 -84.43875 1031 ft 9 kts 207°
2026-05-09 02:44 33.64873 -84.43882 1031 ft 4 kts 175°
2026-05-09 02:44 33.64845 -84.43873 1031 ft 3 kts 149°
2026-05-09 02:44 33.64825 -84.43854 1031 ft 3 kts 141°
2026-05-09 02:44 33.64791 -84.43831 1030 ft 7 kts 156°
2026-05-09 02:45 33.64729 -84.43821 1030 ft 10 kts 180°
2026-05-09 02:45 33.64649 -84.43822 1030 ft 11 kts 180°
2026-05-09 02:45 33.64561 -84.43822 1024 ft 15 kts 179°
2026-05-09 02:45 33.64479 -84.43808 1023 ft 8 kts 145°
2026-05-09 02:46 33.64459 -84.43748 1023 ft 8 kts 91°
2026-05-09 02:46 33.64460 -84.43657 1023 ft 13 kts 90°
2026-05-09 02:46 33.64459 -84.43552 1023 ft 11 kts 91°
2026-05-09 02:46 33.64459 -84.43527 1023 ft 0 kts 90°
2026-05-09 02:47 33.64458 -84.43514 1023 ft 5 kts 99°
2026-05-09 02:47 33.64407 -84.43461 1023 ft 12 kts 174°
2026-05-09 02:48 33.64325 -84.43459 1024 ft 10 kts 180°
2026-05-09 02:48 33.64253 -84.43459 1023 ft 9 kts 180°
2026-05-09 02:48 33.64191 -84.43459 1023 ft 8 kts 180°
2026-05-09 02:48 33.64149 -84.43463 1023 ft 4 kts 205°
2026-05-09 02:49 33.64136 -84.43488 1023 ft 2 kts 257°
2026-05-09 02:49 33.64134 -84.43509 1023 ft 0 kts 266°
2026-05-09 02:49 33.64134 -84.43511 1023 ft 0 kts 267°
2026-05-09 02:49 33.64134 -84.43518 1023 ft 0 kts 268°
2026-05-09 02:50 33.64134 -84.43520 1023 ft 0 kts 268°
2026-05-09 02:50 33.64134 -84.43527 1023 ft 1 kts 268°
2026-05-09 02:50 33.64134 -84.43531 1023 ft 0 kts 268°